Weather in Bereznegovatoe

Ukraine / Mykolaiv District     47°18′40″N   32°50′51″E
temp.,
°C
wind,
m/s
gust,
m/s
humid.,
%
clouds,
%
prec.,
mm/h
press.,
hPa
HPBL,
m
16 january, sun
sun1623:00+1nw7147852 0.0 1016844
02:000nnw6128098 0.0 1018803
05:00−1nw5108480 0.1 1018305
08:00−1wnw4108995 0.1 1021394
11:00+3nw795994 0.1 10221380
14:00+3nw675796 0.1 10211255
17:00+1wnw486580 0.0 1021326
20:00−2wnw34785 0.0 102286
17 january, mon
mon1723:00−2wsw35765 0.0 102191
02:00−2sw38795 0.0 1020200
05:00−2sw4107598 0.0 1018260
08:00−1sw41281100 0.0 1016381
11:00+3sw71273100 0.0 1012692
14:00+4sw71268100 0.1 1007954
17:000sw5116987 0.0 1006261
20:00+1sw71561100 0.0 1004455
18 january, tue
tue1823:000wsw61597100 1.4 1002690
02:000nw91368100 1.8 1004909
05:00−2w7157439 0.0 1005754
08:00−2nw10157898 0.1 10061125
11:00−2nw9126498 0.1 10101482
14:00−1nw9135685 0.1 10121565
17:00−3nw7126348 0.0 1014763
20:00−3nw81369100 0.0 10161189
19 january, wed
wed1923:00−4nw7138794 0.1 10181234
02:00−4nw8138298 0.3 10201171
05:00−5nnw81277100 0.1 10211020
08:00−5nnw71277100 0.1 1023914
11:00−4nnw81065100 0.0 1023954
14:00−3nnw785886 0.0 10221038
17:00−5nw496854 0.0 1023285
20:00−5nw367786 0.0 1023190
20 january, thu
thu2023:00−5w2276100 0.0 102249
02:00−4wsw237472 0.0 102269
05:00−4sw248980 0.0 1021125
08:00−4s359693 0.1 1020166
11:00−1s458676 0.1 1019394
14:00+2s567085 0.1 1017673
17:00−1se51091100 0.0 1016227
20:00−1se51193100 0.0 1015243